Flag for Brazil Weather past 2 weeks in Campo Grande, Mato Grosso Do Sul, Brazil

Now
70 °F

Partly sunny.


Feels Like: 70 °F
Forecast: 66 / 82 °F
Wind: 3 mph from Southwest

Location: Campo Grande Aeroporto

Current Time: Mar 28, 2015 at 9:01:32 AM

Latest Report: Mar 28, 2015 at 8:00 AM


Visibility: N/A

Pressure: 30.12 "Hg

Humidity: 94%

Dew point: 68 °F

Location of Campo GrandeLocation

Historic Weather in Campo Grande — Graph

°F

Campo Grande temperature yesterday

Maximum temperature yesterday: 79 °F (at 2:00 PM)
Minimum temperature yesterday: 68 °F (at 4:00 AM)
Average temperature yesterday: 73 °F

Past Weeks' High & Low Weather Summary

 TemperatureHumidityPressure
High90 °F (Mar 17, 2:00 PM)100% (Mar 15, 2:00 PM)30.12 "Hg (Mar 15, 2:00 PM)
Low34 °F (Mar 15, 2:00 PM)25% (Mar 15, 3:00 PM)29.80 "Hg (Mar 13, 3:00 PM)
Average76 °F72%29.95 "Hg
* Reported Mar 13 8:00 AM — Mar 28 8:00 AM, Campo Grande, Weather by CustomWeather, © 2015

Note: Actual official high and low records may vary slightly from our data, if they occured in-between our weather recording intervals... More about our weather records

Advertising

Campo Grande weather history for previous 24 hours

 ConditionsComfort  
Time TempWeatherWind HumidityBarometerVisibility
8:00 AM
Sat, Mar 28
70 °FPartly sunny.3 mph94%30.12 "HgN/A
7:00 AM72 °FPartly sunny.No wind88%30.09 "HgN/A
6:00 AM68 °FFog.No wind100%30.09 "Hg1 mi
5:00 AM70 °FScattered clouds.No wind94%30.07 "HgN/A
4:00 AM70 °FPassing clouds.1 mph94%30.07 "HgN/A
3:00 AM70 °FPassing clouds.No wind94%30.07 "HgN/A
2:00 AM70 °FPassing clouds.No wind94%30.07 "HgN/A
1:00 AM70 °FPassing clouds.3 mph100%30.07 "HgN/A
12:00 AM70 °FPassing clouds.3 mph100%30.09 "HgN/A
11:00 PM
Fri, Mar 27
72 °FPassing clouds.1 mph94%30.09 "HgN/A
10:00 PM72 °FPassing clouds.No wind88%30.09 "HgN/A
9:00 PM72 °FPassing clouds.3 mph94%30.09 "HgN/A
8:00 PM73 °FPassing clouds.2 mph83%30.07 "HgN/A
7:00 PM73 °FPassing clouds.3 mph83%30.04 "HgN/A
6:00 PM73 °FPassing clouds.5 mph83%30.01 "HgN/A
5:00 PM77 °FPassing clouds.6 mph74%30.01 "HgN/A
4:00 PM77 °FScattered clouds.5 mph74%29.98 "HgN/A
3:00 PM77 °FScattered clouds.7 mph74%29.98 "HgN/A
2:00 PM79 °FScattered clouds.8 mph74%30.01 "HgN/A
1:00 PM75 °FBroken clouds.13 mph78%30.04 "HgN/A
12:00 PM75 °FPartly sunny.14 mph78%30.07 "HgN/A
11:00 AM73 °FBroken clouds.15 mph89%30.09 "HgN/A
10:00 AM73 °FScattered clouds.10 mph89%30.09 "HgN/A
9:00 AM73 °FScattered clouds.12 mph83%30.07 "HgN/A
Weather by CustomWeather, © 2015

See weather overviewHow to use our weather pages